Regional Weather Roundup
Issued by NWS Wakefield, VA

Home | Current Version | Previous Version | Graphics & Text | Print | Product List | Glossary Off
Versions: 1 2 3 4 5 6 7 8 9 10 11 12 13 14 15 16 17 18 19 20 21 22 23 24 25 26 27 28 29 30 31 32 33 34 35 36 37 38 39 40 41 42 43 44 45 46 47 48 49 50

000
ASUS41 KAKQ 020510
RWRAKQ

REGIONAL WEATHER ROUNDUP
NATIONAL WEATHER SERVICE WAKEFIELD VA
1200 AM EST MON MAR 02 2015

Note: "fair" indicates few or no clouds below 12,000 feet with no
significant weather and/or obstructions to visibility. * = Denotes
station may not report precipitation (e.g., rain,snow,etc.),
thunder or fog.

VAZ042-051-052>054-056-020600-
NORTHERN VIRGINIA

CITY           SKY/WX    TMP DP  RH WIND       PRES   REMARKS
WASH NATIONAL  FOG       34  30  85 S6        30.19F VSB 3/4
DULLES         FOG       31  30  96 W3        30.19F VSB 1/2
FORT BELVOIR   CLOUDY    32  32 100 CALM      30.19S FOG
QUANTICO       CLOUDY    33  30  88 SW6       30.20F
FREDERICKSBRG* CLOUDY    34  34 100 SW7       30.18F
STAFFORD*      CLOUDY    32  32 100 CALM      30.22F HAZE
WARRENTON      CLOUDY    34  34 100 CALM      30.18R FOG
CULPEPER*      CLOUDY    34  34 100 W3        30.19R FOG
MANASSAS*      CLOUDY    34  34 100 W3        30.19S
LEESBURG*      CLOUDY    32  32 100 CALM      30.18F FOG
WINCHESTER     CLOUDY    32  30  93 CALM      30.15S FOG
FRONT ROYAL*   CLOUDY    30  28  93 CALM      30.14R
LURAY*         CLOUDY    43  37  81 SW8       30.12F
$$

VAZ048-049-060>072-079>083-020600-
CENTRAL AND SOUTH CENTRAL VIRGINIA

CITY           SKY/WX    TMP DP  RH WIND       PRES   REMARKS
RICHMOND       FOG       33  32  96 S8        30.23F VSB 3/4
CHESTERFIELD*  CLOUDY    34  21  60 SW5       30.24F
PETERSBURG*    CLOUDY    34  34  99 SW5       30.26F FOG
HANOVER        CLOUDY    33  32  96 S10       30.22F FOG     WCI  25
TAPPAHANNOCK*  FOG       33  31  92 S6        30.21F VSB 3/4
QUINTON*       CLOUDY    32  32 100 CALM      30.24F
CHARLOTTSVILLE CLOUDY    32  31  96 SW6       30.17F FOG
GORDONSVILLE*  CLOUDY    32  31  98 SW8       30.17S FOG
ORANGE*        CLOUDY    34  34 100 S8        30.19F FOG
LOUISA*        CLOUDY    34  34 100 SW5       30.16F FOG
BUMPASS*       CLOUDY    32  32 100 SW6       30.18F
FARMVILLE*     FOG       35  35 100 SW8       30.21F VSB 3/4
CREWE*         CLOUDY    33  32  95 S5        30.22F
FORT PICKETT*  CLOUDY    32  32  99 SW8       30.24F
CHASE CITY*    CLOUDY    34  34 100 CALM      30.26F
CLARKSVILLE*   CLOUDY    32  32 100 S3        30.25F
SOUTH HILL*    CLOUDY    32  31  98 S7        30.31F
LAWRENCEVILLE* CLOUDY    32  32 100 SW3       30.25F
EMPORIA*       MOCLDY    32  32 100 CALM      30.29F FOG
$$

VAZ088>098-020600-
SOUTHEAST VIRGINIA

CITY           SKY/WX    TMP DP  RH WIND       PRES   REMARKS
NORFOLK        CLOUDY    33  30  88 SW9       30.26R FOG
VIRGINIA BEACH CLOUDY    35  31  85 W10       30.26R
NORFOLK NAVAL  MOCLDY    36  31  82 SW7       30.27S
WEST POINT*    CLOUDY    35  33  91 SW5       30.26F
SALUDA*        CLOUDY    32  31  98 CALM      30.24S
NEWPORT NEWS   CLOUDY    35  31  85 W9        30.26F
LANGLEY AFB    CLOUDY    33  31  94 W12       30.25F WCI  24
FORT EUSTIS    CLOUDY    33  33 100 W5        30.24F
WILLIAMSBURG*  CLOUDY    36  34  93 W5        30.27S
HR EXEC AP*    CLOUDY    32  30  93 SW6       30.29F
FRANKLIN*      CLOUDY    32  32  99 W5        30.29F
WAKEFIELD      CLOUDY    33  31  92 SW5       30.27F
$$

VAZ020-022-025-037-045-020600-
WEST CENTRAL AND SOUTHWEST VIRGINIA

CITY           SKY/WX    TMP DP  RH WIND       PRES   REMARKS
STAUNTON*      CLOUDY    42  35  77 S9        30.16S
WAYNESBORO*    CLOUDY    44  38  80 SW7G17    30.13F
HOT SPRINGS VA SNOW      40  40 100 W23G30    30.11F VSB<1/4
LYNCHBURG      PTCLDY    31  31 100 S10       30.19F FOG     WCI  22
DANVILLE       CLOUDY    35  33  92 SW6       30.26F FOG
SOUTH BOSTON*  CLOUDY    33  32  96 S5        30.25F
MARTINSVILLE   MOCLDY    36  36 100 SW5       30.26F FOG
ROANOKE        CLOUDY    36  29  75 CALM      30.23F
BLACKSBURG     CLOUDY    41  39  93 W6        30.24F
DUBLIN*        CLOUDY    42  42 100 SW3       30.23F
MARION*        FOG       43  42  96 W14       30.25S VSB 1/2
HILLSVILLE*    PTCLDY    43  42  95 NW6       30.23F
RICHLANDS*     FOG       43  41  94 SW15G22   30.24F VSB 1/4
WISE*          FOG       41  41 100 W13G18    30.25F VSB<1/4
ABINGDON*      CLOUDY    43  43 100 W6        30.27F FOG
$$

MDZ021>025-VAZ099-100-020600-
SOUTHERN MARYLAND AND THE DELMARVA PENINSULA

CITY           SKY/WX    TMP DP  RH WIND       PRES   REMARKS
PATUXENT RIVER CLOUDY    32  30  92 S5        30.18F FOG
BAY BRIDGE APT   N/A     32  32 100 S3        30.17F FOG
LEONARDTOWN    CLOUDY    32  32 100 S3        30.19F VSB 1
DOVER          CLOUDY    33  33 100 CALM      30.17F
GEORGETOWN     FOG       32  32 100 SW3       30.20F VSB 1/2
EASTON         CLOUDY    33  33 100 SW5       30.21F
CAMBRIDGE      NOT AVBL
SALISBURY      CLOUDY    35  32  88 W6        30.21F FOG
OCEAN CITY     CLOUDY    32  32 100 W3        30.20F FOG
WALLOPS ISLAND FOG       32  32 100 W5        30.22F VSB 3/4
ACCOMACK*      CLOUDY    32  32 100 W5        30.23F
$$

NCZ012>017-030>032-020600-
NORTH CENTRAL AND EASTERN NORTH CAROLINA

CITY           SKY/WX    TMP DP  RH WIND       PRES   REMARKS
ROANOKE RAPIDS CLOUDY    32  32 100 S5        30.29F FOG
RALEIGH        FOG       35  32  88 SW8       30.29F VSB 1/4
ELIZABETH CITY CLOUDY    37  36  96 W6        30.27F
AHOSKIE*       CLOUDY    32  32  99 CALM      30.30F FOG
EDENTON*       FOG       36  36  99 W7        30.28F VSB 1
CURRITUCK*     CLOUDY    36  35  96 W5        30.27R
KILL DEVIL HLS CLOUDY    42  42 100 SW7       30.24S FOG
MANTEO         CLOUDY    39  39 100 SW6       30.26F
CAPE HATTERAS  CLOUDY    40  40 100 NW5       30.30F
TARBORO*       CLOUDY    36  35  96 SW3       30.31F FOG
GOLDSBORO      CLOUDY    38  38 100 SW8       30.29F FOG
WASHINGTON     CLOUDY    38  37  97 SW5       30.29F FOG
GREENVILLE     FOG       36  36 100 NW5       30.32R VSB 1
NEW BERN       CLOUDY    41  39  93 CALM      30.31F
WILMINGTON     CLOUDY    42  41  96 W5        30.33F FOG
$$

VAZ048-020600-
ELSEWHERE

CITY           SKY/WX    TMP DP  RH WIND       PRES   REMARKS
HARRISBURG PA  CLOUDY    26  24  92 CALM      30.15F FOG
BALTIMORE      FOG       30  30 100 W3        30.17F VSB 3/4
ANNAPOLIS      CLOUDY    31  30  96 MISG      30.17F FOG
ANDREWS AFB    FOG       32  31  99 CALM      30.16F VSB 3/4
PHILADELPHIA   CLOUDY    32  29  88 SW7       30.18F FOG
HENDERSON NC   FOG       33  32  96 CALM      30.26F VSB 1/2
GREENSBORO     FOG       36  35  96 SW8       30.26F VSB 1/2
ROCKY MOUNT    FOG       36  36 100 SW6       30.30F VSB 3/4
$$

VAZ100-020600-
MARINE

STATION/POSITION TIME  TEMP    WIND        PRES    WAVE   SWELL
                       AIR SEA DIR/SP/G            HT/PER HT/PER
                 (UTC) (F)     (DEG/KT/KT) (MB)    (FT/S) (FT/S)
BRANDYWINE LGT   0400   31 30     CALM     1022.7F
CAPE MAY NJ      0500   30 32     CALM     1022.2S
LEWES DE         0500   32 30     CALM     1022.7R
15NM E FENWICK I 0500   32 34              1022.0F   3/ 6
OCEAN-CITY-INLET 0400   32 32     CALM     1022.6
WACHAPREAGUE VA  0500   33 33  250/  3/  5 1023.6F
THOMAS POINT MD  0400   31 31     CALM     1024.5
COVE POINT MD    0500   30        CALM     1023.0F
SOLOMONS ISLAND  0500      32                N/A
BISHOPS HEAD MD  0500   31 31     CALM     1022.9R
CAMBRIDGE MD     0500   32 32     CALM     1022.9F
LEWISETTA VA     0500   33 32              1022.8F
RAPPAHANNOCK LGT 0500          210/  1/  1 1024.4F
STINGRAY PT      0500   32 32  240/  2/  2   N/A     0
YORK RVR RNG VA  0500   32     250/  3/  4 1023.9R
YORKTOWN VA      0500   33 33  250/  5/  6 1024.3S
DOMINION TERM VA 0500   33     290/ 10/ 11 1025.2R
KIPTOPEKE VA     0500      37  280/  5/  7   N/A
CHES BAY BRIDGE  0400   33 33  260/  3/  4 1024.4
CAPE HENRY VA    0500   32     260/  3/  4 1023.4R
CHESAPEAKE LGHT  0400   33     190/ 11/ 11 1024.0F
WILLOUBY STN VA  0500   33     260/ 13/ 14 1025.2S
S CRANEY ISL VA  0500          250/  3/  5 1025.3S
CAPE HENRY BUOY  0500      35                N/A     3/ 6
1ST LANDING BUOY 0500   33 33  260/ 10/ 14 1024.4R   1/ 5
OFFSHORE WE BUOY 0500      36                N/A     3/ 6   3/ 6
64NM E OF VA BCH 0500   47 54  220/ 12/ 14 1022.8F   4/ 6   3/ 6
DUCK PIER NC     0500   37 34  210/  6/  7 1023.6F
44100 DUCK FRF   0500      37                N/A     4/ 6
44056 DUCK FRF   0500                        N/A     3/ 6
OREGON INLET NC  0500   39 41  160/  6/  7 1024.8F
HATTERAS NC      0400   40 41  310/  7/ 10 1026.4
CAPE LOOKOUT NC  0400   45     350/  4/  5 1026.8F
$$


USA.gov is the U.S. government's official web portal to all federal, state and local government web resources and services.